SAUDICOMSAT 2

Last updated on July 6, 2021, 3:39 p.m. UTC

1 28370U 04025E   21186.83581277  .00000041  00000-0  23499-4 0  9996
2 28370  98.4815 140.4731 0057294 333.4896  26.3368 14.47553066898486
UTC
Height (km)
Latitude
Longitude
Inclination
Orbital Period
UTC large
Height (km)
Speed (km/s)
/
Latitude / Longitude
Inclination (degrees)
Orbital Period (minutes)
Azimuth
Elevation
Range (km)
Doppler Factor
iOS Compass Heading
iOS Angle